Wind_Speed
53 54 56 58 60 62 63 64 66 68 71 73 75 80 81 81 84 84 83 85 85 82 80 79 77 75 74 73 70 69 68 66 64 62 62 63 63 61 62 64 62 61 61
59 60 62 63 64 67 70 71 73 73 74 76 76 75 77 81 83 84 87 89 88 88 87 85 83 82 81 79 78 75 74 72 70 69 64 65 65 64 64 62 62 62 60
60 65 68 68 70 71 71 71 74 75 78 80 80 82 82 82 83 85 86 87 91 92 94 92 90 90 88 86 87 85 83 81 78 75 74 70 69 69 69 69 65 61 61
68 71 72 75 78 80 80 80 82 83 84 83 85 88 89 89 90 90 91 91 90 91 93 94 97 95 94 92 89 88 90 89 87 83 80 76 70 69 69 69 69 69 68
64 70 75 79 81 83 86 87 89 91 93 95 93 94 95 100 100 100 99 99 99 97 96 95 97 96 99 98 97 95 93 92 91 90 84 71 80 73 70 69 69 69 70
65 61 64 68 69 74 79 83 85 92 96 99 102 104 103 107 110 110 111 110 107 105 103 101 100 99 98 98 100 98 100 99 94 93 90 85 84 73 74 75 73 71 72
57 63 63 60 71 72 76 81 81 79 86 95 100 102 100 112 116 115 118 120 118 114 111 108 108 104 103 101 99 100 100 103 102 99 95 94 92 80 77 77 71 58 70
58 60 66 70 81 86 87 88 83 87 91 95 99 111 115 113 116 121 124 122 124 125 123 119 113 112 108 109 105 101 101 98 101 104 102 98 95 91 81 77 73 68 69
73 73 81 85 92 91 100 105 100 97 98 98 112 113 116 122 124 125 126 125 127 126 121 118 118 118 117 113 110 109 105 102 97 98 103 102 100 95 90 80 74 66 71
82 80 91 93 101 104 110 116 108 105 103 104 108 115 117 121 120 123 127 126 121 124 124 121 120 118 117 118 113 112 109 106 102 97 95 95 105 100 96 87 79 79 83
92 96 103 105 112 115 123 121 113 110 109 108 112 114 116 117 114 114 118 128 130 122 114 118 117 118 118 118 117 115 114 112 109 103 96 89 100 93 100 96 93 85 82
101 108 113 119 121 124 130 124 112 111 113 113 115 116 116 115 116 113 109 121 130 131 124 112 118 116 117 118 118 119 115 114 110 108 104 97 93 94 94 79 71 84 95
115 116 122 128 134 138 134 124 111 110 113 114 113 114 114 112 110 108 108 108 113 125 131 123 113 121 119 121 118 120 119 116 116 112 109 104 96 93 90 76 54 62 57
114 124 131 137 143 135 128 118 109 108 108 107 105 103 101 100 98 98 97 96 103 110 120 126 122 115 124 123 122 124 123 123 122 117 113 108 103 98 98 98 70 61 59
122 131 143 148 145 123 119 112 105 99 94 94 94 93 92 93 93 93 92 90 86 97 105 114 124 123 121 127 127 128 124 127 126 123 119 113 109 105 99 99 102 84 72
134 141 143 149 128 114 110 103 96 94 91 93 95 94 94 94 93 93 93 91 87 84 93 104 112 123 124 123 132 130 129 127 129 125 124 120 114 109 104 99 100 105 109
144 142 146 153 118 105 98 93 92 91 91 89 90 89 89 90 90 91 93 94 91 86 85 97 104 113 121 123 127 133 131 128 128 130 129 124 119 114 109 104 100 101 101
138 152 152 130 107 98 92 91 89 87 85 84 83 82 82 83 84 85 86 89 90 90 85 90 101 106 112 121 124 126 131 129 131 133 131 129 124 118 114 110 106 102 100
150 158 143 113 100 95 92 88 85 81 77 74 74 73 74 75 76 79 80 82 84 86 87 87 95 102 108 113 121 121 126 127 129 133 132 130 127 122 117 113 109 105 102
160 146 119 103 96 93 88 84 78 74 71 69 67 67 67 67 68 71 74 77 79 81 83 85 91 99 103 111 115 118 118 126 127 131 132 130 128 125 120 115 110 106 104
156 125 106 98 94 89 83 77 73 70 68 65 64 63 63 61 60 62 65 70 73 76 79 81 86 94 101 107 112 118 118 117 124 129 131 130 126 122 121 118 111 108 105
131 108 100 95 90 84 78 73 69 67 64 59 58 59 60 59 55 52 57 61 64 68 74 79 83 89 97 105 112 116 116 117 117 123 126 126 124 120 121 119 115 113 108
115 101 97 89 85 79 74 69 66 63 59 55 52 51 55 54 53 53 48 52 59 63 67 73 78 86 92 101 111 113 115 116 116 119 123 123 122 119 118 119 117 114 109
102 96 90 85 81 74 68 65 61 57 55 52 49 49 50 50 47 47 48 47 51 57 62 68 73 83 89 96 102 112 114 114 112 113 117 118 121 118 116 116 116 115 113
95 90 84 82 75 69 65 59 54 52 52 51 52 48 45 45 45 42 43 44 46 52 57 60 66 74 82 90 95 105 110 110 111 113 113 111 116 116 116 114 114 113 111
92 84 81 76 68 64 59 52 49 46 49 49 48 46 45 42 41 42 42 42 43 44 47 54 57 64 73 80 89 96 103 107 108 112 111 108 110 111 114 114 113 112 110
Wind_Direction
284 284 283 281 279 278 276 275 272 270 268 265 266 266 262 261 261 258 258 259 259 258 257 256 251 248 246 244 245 247 249 250 250 252 253 252 253 255 256 254 253 255 258
287 287 284 283 282 280 279 278 276 275 274 271 267 265 266 265 262 260 259 257 256 256 256 256 256 252 248 247 245 245 247 248 251 252 252 255 255 255 254 254 255 254 252
278 277 278 277 275 273 270 269 270 272 272 272 272 268 267 265 265 262 260 259 259 256 254 252 252 253 254 251 249 246 246 248 248 250 252 252 255 256 256 257 257 257 256
276 276 277 277 277 275 274 273 272 273 271 270 270 270 269 267 265 264 263 260 258 257 256 255 252 250 251 251 250 249 246 247 248 249 250 251 249 251 254 256 258 260 261
280 278 277 276 275 275 274 273 274 274 273 272 271 270 270 269 266 265 263 262 260 258 256 256 254 252 250 249 250 249 248 247 245 246 246 247 246 246 249 252 255 257 258
283 286 288 286 284 282 277 276 275 274 274 272 268 268 268 267 267 267 265 262 261 260 259 258 256 255 252 250 247 247 247 247 247 245 243 241 246 244 246 249 252 255 257
285 301 302 292 300 297 291 280 276 277 277 271 266 264 267 263 263 263 263 264 264 262 259 258 257 256 256 253 251 247 244 245 245 245 244 244 244 243 244 246 248 256 257
302 311 315 311 317 311 311 299 292 277 278 274 269 265 262 264 264 263 263 264 262 262 262 261 257 257 254 255 252 251 248 245 244 243 242 243 243 245 246 245 244 243 255
297 309 313 314 317 314 313 311 295 285 281 278 268 264 264 262 261 265 265 265 264 262 262 260 258 256 256 254 251 251 250 248 245 244 243 242 242 242 242 241 241 235 250
313 313 316 314 315 313 311 307 302 290 281 278 273 272 269 266 263 261 261 262 262 260 259 257 255 253 253 252 250 249 248 249 247 244 244 243 242 241 240 239 240 237 238
314 317 318 316 315 314 312 305 300 292 285 280 276 272 269 269 266 259 254 254 257 259 256 254 252 251 250 250 249 248 249 247 246 245 243 240 243 241 242 241 238 238 241
320 322 321 319 316 311 309 305 297 292 286 282 279 275 272 268 266 263 254 250 252 253 255 251 249 248 247 246 245 246 246 244 245 244 244 241 239 237 240 240 240 243 244
321 320 321 318 313 310 309 303 294 290 285 282 279 276 275 272 268 262 258 253 249 248 250 250 246 244 243 243 242 243 242 243 242 242 242 241 238 236 229 227 226 236 247
320 318 318 316 312 308 307 301 294 290 285 283 280 277 275 273 270 266 260 252 248 246 245 248 245 239 240 241 241 242 241 242 241 240 240 239 237 236 233 226 220 222 218
317 318 315 313 309 305 305 298 292 289 286 284 280 276 273 271 268 266 263 259 246 244 244 243 244 241 236 238 239 240 239 239 238 238 238 238 236 235 234 232 224 221 213
320 317 314 316 306 304 302 297 292 289 286 283 280 277 274 270 267 265 263 259 253 241 241 242 242 243 240 234 236 235 236 236 236 236 236 235 234 235 235 233 230 228 224
317 315 317 317 305 303 300 297 294 290 289 286 282 279 276 273 269 265 262 259 255 247 237 241 240 240 242 238 233 233 234 235 234 234 235 235 233 233 234 235 234 232 230
315 319 318 314 307 303 300 299 297 294 291 287 283 280 276 273 270 266 262 258 255 251 241 236 240 239 240 241 237 231 233 233 232 232 232 233 233 232 232 233 234 235 234
317 319 318 312 307 305 304 303 299 297 293 289 285 282 278 273 269 266 263 259 255 251 247 239 236 238 238 238 240 236 233 231 230 231 231 232 233 233 233 232 233 234 235
319 320 316 311 308 308 306 304 302 299 297 294 291 287 281 276 270 266 263 259 255 252 247 242 237 235 236 238 238 239 236 231 229 230 231 231 231 232 233 233 233 233 234
321 318 314 311 310 309 307 307 306 304 301 298 295 290 283 276 273 269 263 259 255 250 247 242 239 235 233 235 237 237 238 234 229 228 231 231 231 232 233 233 233 233 234
319 317 313 312 311 310 310 309 308 305 302 299 295 291 287 285 281 273 268 262 256 250 246 242 237 235 232 232 234 235 236 236 232 229 229 231 231 231 231 232 233 233 233
318 315 314 314 312 312 311 310 308 307 302 298 295 293 290 286 283 280 271 264 258 250 244 240 237 233 231 230 231 233 233 234 234 232 226 227 230 230 231 230 232 234 234
316 314 314 314 313 312 312 311 309 304 302 302 302 297 293 289 284 278 274 267 257 254 246 240 234 233 230 230 229 231 231 232 233 234 231 225 227 229 230 230 231 233 235
316 315 316 314 314 313 311 310 307 306 307 306 301 298 295 292 286 282 276 268 261 253 252 246 238 233 231 230 228 229 229 229 230 232 232 228 226 226 228 229 230 231 234
315 315 315 314 314 313 311 309 306 306 304 303 303 301 299 295 292 289 283 275 266 258 251 246 241 236 233 230 230 227 228 226 228 230 231 230 229 224 225 228 228 230 231
Height
10726 10725 10722 10719 10716 10714 10711 10709 10707 10705 10705 10704 10705 10704 10704 10706 10709 10711 10710 10712 10715 10717 10719 10723 10729 10732 10735 10738 10741 10743 10746 10749 10751 10752 10753 10756 10758 10760 10763 10765 10767 10768 10770
10713 10711 10708 10706 10704 10700 10697 10694 10690 10689 10689 10689 10688 10688 10686 10685 10686 10687 10688 10690 10693 10694 10697 10701 10705 10711 10715 10719 10724 10727 10730 10734 10737 10739 10740 10742 10745 10747 10749 10751 10754 10757 10758
10699 10695 10692 10689 10686 10683 10679 10676 10673 10671 10669 10668 10668 10666 10667 10666 10664 10663 10664 10665 10666 10670 10674 10678 10681 10686 10693 10698 10704 10708 10712 10716 10719 10723 10727 10729 10730 10732 10736 10739 10740 10743 10746
10685 10682 10679 10675 10671 10667 10664 10661 10658 10655 10652 10651 10647 10643 10643 10643 10641 10640 10640 10640 10641 10642 10647 10652 10657 10661 10667 10673 10680 10687 10691 10696 10701 10706 10710 10714 10713 10716 10721 10725 10729 10732 10734
10672 10668 10662 10657 10652 10648 10644 10640 10635 10633 10629 10627 10626 10621 10618 10616 10614 10614 10615 10614 10616 10618 10620 10624 10629 10637 10643 10647 10655 10662 10668 10673 10680 10686 10693 10696 10692 10701 10706 10712 10716 10719 10721
10656 10651 10644 10637 10632 10627 10621 10616 10611 10605 10604 10602 10597 10594 10590 10586 10583 10584 10583 10585 10586 10591 10595 10598 10601 10608 10614 10622 10627 10633 10641 10648 10656 10664 10671 10676 10675 10685 10691 10695 10699 10704 10705
10639 10634 10625 10619 10615 10606 10598 10590 10583 10576 10568 10566 10567 10562 10557 10552 10548 10548 10549 10548 10554 10557 10562 10567 10573 10578 10585 10592 10599 10605 10612 10619 10629 10638 10647 10654 10660 10668 10675 10680 10686 10689 10686
10616 10608 10601 10594 10585 10578 10568 10561 10553 10546 10538 10525 10520 10521 10527 10517 10513 10511 10507 10514 10516 10517 10525 10534 10541 10546 10554 10562 10568 10578 10585 10592 10602 10611 10621 10632 10641 10651 10658 10664 10672 10672 10671
10591 10581 10570 10561 10551 10543 10534 10523 10515 10504 10497 10486 10479 10476 10480 10484 10479 10468 10470 10472 10477 10478 10485 10495 10504 10512 10520 10529 10536 10546 10555 10564 10576 10586 10596 10609 10619 10629 10637 10644 10654 10663 10650
10560 10549 10540 10529 10518 10508 10497 10486 10473 10463 10454 10448 10436 10428 10431 10435 10436 10440 10425 10423 10428 10435 10444 10453 10462 10472 10484 10493 10503 10514 10523 10535 10548 10560 10568 10586 10591 10605 10615 10623 10634 10640 10640
10533 10519 10507 10494 10481 10470 10457 10444 10431 10417 10405 10397 10392 10386 10381 10380 10386 10393 10399 10380 10378 10384 10401 10412 10421 10434 10446 10456 10469 10478 10491 10505 10519 10532 10543 10558 10564 10583 10589 10603 10612 10618 10623
10504 10486 10473 10460 10445 10432 10415 10399 10384 10371 10357 10347 10338 10332 10329 10329 10329 10334 10349 10351 10346 10341 10349 10370 10382 10394 10406 10419 10431 10444 10458 10472 10487 10502 10516 10529 10544 10558 10566 10585 10591 10597 10602
10475 10458 10443 10428 10412 10393 10373 10358 10343 10328 10313 10302 10288 10280 10278 10279 10278 10285 10296 10306 10311 10312 10308 10318 10338 10354 10365 10379 10394 10409 10425 10440 10453 10470 10487 10502 10518 10532 10548 10556 10569 10574 10590
10446 10429 10411 10396 10376 10355 10334 10315 10302 10283 10268 10258 10249 10241 10237 10235 10234 10234 10243 10259 10267 10274 10277 10279 10289 10310 10323 10340 10355 10371 10392 10405 10420 10437 10455 10472 10488 10501 10517 10536 10550 10558 10564
10413 10395 10378 10359 10335 10312 10293 10276 10260 10242 10230 10219 10211 10204 10199 10197 10196 10197 10200 10209 10227 10237 10243 10244 10248 10259 10281 10297 10313 10333 10354 10371 10387 10405 10422 10440 10457 10473 10489 10507 10526 10533 10542
10377 10361 10340 10315 10289 10268 10249 10234 10221 10207 10196 10183 10175 10170 10164 10161 10162 10163 10164 10171 10183 10201 10210 10207 10215 10219 10233 10257 10273 10290 10313 10334 10354 10374 10390 10408 10426 10443 10460 10478 10496 10506 10519
10348 10325 10301 10279 10251 10229 10209 10196 10184 10171 10157 10147 10137 10133 10128 10124 10125 10128 10130 10134 10145 10160 10180 10178 10184 10189 10196 10214 10234 10251 10272 10295 10319 10337 10356 10378 10398 10417 10430 10445 10461 10477 10490
10309 10285 10262 10235 10213 10194 10176 10162 10149 10135 10125 10116 10106 10100 10096 10092 10092 10092 10095 10100 10108 10119 10140 10152 10151 10160 10168 10171 10192 10217 10235 10257 10279 10299 10322 10346 10368 10388 10405 10419 10432 10446 10462
10272 10246 10219 10197 10178 10159 10143 10128 10116 10105 10094 10085 10076 10071 10066 10063 10061 10060 10062 10068 10074 10084 10100 10118 10124 10129 10137 10144 10153 10178 10201 10221 10243 10262 10286 10310 10333 10355 10377 10396 10412 10424 10435
10237 10209 10184 10165 10146 10130 10115 10100 10088 10076 10066 10057 10050 10043 10037 10035 10034 10032 10033 10037 10043 10052 10064 10080 10093 10100 10109 10112 10125 10141 10164 10187 10208 10227 10252 10277 10300 10324 10345 10367 10388 10403 10413
10201 10177 10157 10138 10118 10104 10089 10075 10063 10053 10042 10033 10025 10016 10011 10010 10009 10008 10009 10009 10015 10022 10031 10046 10059 10070 10081 10087 10097 10104 10126 10149 10175 10197 10220 10243 10271 10298 10318 10337 10359 10376 10389
10168 10148 10129 10113 10093 10080 10065 10052 10042 10031 10022 10015 10005 9997 9991 9987 9986 9988 9987 9986 9990 9996 10002 10012 10024 10037 10049 10060 10062 10075 10096 10111 10140 10174 10193 10217 10242 10265 10288 10310 10329 10345 10363
10142 10124 10105 10089 10073 10059 10044 10033 10022 10013 10003 9996 9989 9982 9974 9970 9969 9965 9967 9965 9964 9967 9973 9982 9995 10004 10014 10025 10034 10048 10064 10083 10105 10127 10164 10188 10211 10236 10258 10281 10301 10320 10339
10119 10102 10082 10068 10054 10040 10027 10017 10007 9997 9987 9979 9974 9968 9961 9954 9951 9947 9944 9944 9945 9946 9948 9954 9965 9971 9985 9994 10010 10016 10035 10059 10083 10102 10127 10164 10183 10208 10230 10254 10278 10296 10313
10096 10078 10062 10049 10036 10022 10011 10003 9993 9982 9973 9966 9960 9953 9948 9940 9934 9932 9928 9924 9924 9924 9929 9938 9945 9953 9963 9973 9986 9994 10013 10037 10056 10072 10094 10131 10157 10182 10202 10226 10250 10272 10291
10079 10060 10044 10034 10020 10008 9998 9989 9981 9973 9964 9957 9947 9940 9933 9928 9921 9915 9911 9909 9906 9910 9913 9915 9923 9933 9942 9953 9964 9976 9987 10014 10032 10047 10072 10103 10122 10156 10178 10198 10223 10244 10266